Torna al catalogo

CUBEBUG 1

AttivoScienzaSSO
NORAD 39153·PAYLOAD·🇦🇷 Argentina

Lanciato Apr 26, 2013 da Jiuquan Satellite Launch Center

Loading…

Prossimi Passaggi (prossime 24 ore)

TLE

AggiornatoSource: Space-Track

Epoca: Sep 14, 2026, 10:28 UTC

1 39153U 13018D   26257.43625632  .00001763  00000-0  15570-3 0  9995
2 39153  98.1773  61.4413 0010668 209.3187 150.7436 14.97745492724425

Traccia CUBEBUG 1 in tempo reale con AllMySat

Download on the App Store